Time,TemperatureF,DewpointF,PressureIn,WindDirection,WindDirectionDegrees,WindSpeedMPH,WindSpeedGustMPH,Humidity,HourlyPrecipIn,Conditions,Clouds,dailyrainin,SoftwareType,DateUTC
2013-04-19 02:02:00,29.0,28.0,-100.00,NNW,340,23.0,29.0,99,0.00,,,0.09,,2013-04-19 07:02:00,
2013-04-19 02:12:00,29.0,28.0,-100.00,NNW,330,22.0,29.0,99,0.00,,,0.09,,2013-04-19 07:12:00,
2013-04-19 02:21:00,29.0,28.0,-100.00,NNW,335,22.0,29.0,99,0.00,,,0.09,,2013-04-19 07:21:00,
2013-04-19 02:32:00,29.0,28.0,-100.00,NNW,330,23.0,32.0,99,0.00,,,0.09,,2013-04-19 07:32:00,
2013-04-19 02:42:00,29.0,28.0,-100.00,NNW,330,23.0,29.0,99,0.00,,,0.09,,2013-04-19 07:42:00,
2013-04-19 02:52:00,29.0,28.0,-100.00,NNW,335,24.0,31.0,99,0.00,,,0.09,,2013-04-19 07:52:00,
2013-04-19 03:02:00,29.0,28.0,-100.00,NNW,335,22.0,31.0,99,0.00,,,0.09,,2013-04-19 08:02:00,
2013-04-19 03:12:00,29.0,28.0,-100.00,NNW,330,23.0,30.0,100,0.00,,,0.09,,2013-04-19 08:12:00,
2013-04-19 03:21:00,29.0,28.0,-100.00,NW,325,23.0,32.0,99,0.00,,,0.09,,2013-04-19 08:21:00,
2013-04-19 03:32:00,29.0,28.0,-100.00,NNW,335,24.0,30.0,99,0.00,,,0.09,,2013-04-19 08:32:00,
2013-04-19 03:42:00,29.0,28.0,-100.00,NNW,330,24.0,32.0,99,0.00,,,0.09,,2013-04-19 08:42:00,
2013-04-19 03:52:00,29.0,28.0,-100.00,NNW,330,22.0,31.0,99,0.00,,,0.09,,2013-04-19 08:52:00,
2013-04-19 04:01:00,29.0,28.0,-100.00,NNW,330,23.0,30.0,99,0.00,,,0.09,,2013-04-19 09:01:00,
2013-04-19 04:11:00,29.0,28.0,-100.00,NNW,335,21.0,29.0,99,0.00,,,0.09,,2013-04-19 09:11:00,
2013-04-19 04:21:00,29.0,28.0,-100.00,NNW,335,24.0,34.0,99,0.00,,,0.09,,2013-04-19 09:21:00,
2013-04-19 04:32:00,29.0,28.0,-100.00,NNW,335,21.0,32.0,99,0.00,,,0.09,,2013-04-19 09:32:00,
2013-04-19 04:42:00,29.0,28.0,-100.00,NNW,335,22.0,29.0,99,0.00,,,0.09,,2013-04-19 09:42:00,
2013-04-19 04:52:00,29.0,28.0,-100.00,NNW,335,21.0,29.0,99,0.00,,,0.09,,2013-04-19 09:52:00,
2013-04-19 05:02:00,29.0,28.0,-100.00,NNW,335,19.0,27.0,98,0.00,,,0.09,,2013-04-19 10:02:00,
2013-04-19 05:13:00,29.0,28.0,-100.00,NNW,335,18.0,26.0,97,0.00,,,0.09,,2013-04-19 10:13:00,
2013-04-19 05:23:00,29.0,28.0,-100.00,NNW,340,18.0,24.0,96,0.00,,,0.09,,2013-04-19 10:23:00,
2013-04-19 05:33:00,29.0,28.0,-100.00,NNW,330,20.0,26.0,95,0.00,,,0.09,,2013-04-19 10:33:00,
2013-04-19 05:42:00,29.0,27.0,-100.00,NNW,335,19.0,26.0,94,0.00,,,0.09,,2013-04-19 10:42:00,
2013-04-19 05:52:00,29.0,27.0,-100.00,NNW,335,20.0,24.0,93,0.00,,,0.09,,2013-04-19 10:52:00,
2013-04-19 06:02:00,29.0,27.0,-100.00,NW,325,16.0,24.0,92,0.00,,,0.09,,2013-04-19 11:02:00,
2013-04-19 06:11:00,29.0,27.0,-100.00,NNW,340,17.0,22.0,92,0.00,,,0.09,,2013-04-19 11:11:00,
2013-04-19 06:22:00,29.0,27.0,-100.00,NNW,330,18.0,22.0,91,0.00,,,0.09,,2013-04-19 11:22:00,
2013-04-19 06:32:00,29.0,27.0,-100.00,NNW,335,18.0,22.0,90,0.00,,,0.09,,2013-04-19 11:32:00,
2013-04-19 06:42:00,29.0,27.0,-100.00,NNW,330,16.0,21.0,90,0.00,,,0.09,,2013-04-19 11:42:00,
2013-04-19 06:52:00,29.0,27.0,-100.00,NNW,330,16.0,22.0,89,0.00,,,0.09,,2013-04-19 11:52:00,
2013-04-19 07:02:00,28.0,25.0,-100.00,NNW,330,15.0,20.0,89,0.00,,,0.09,,2013-04-19 12:02:00,
2013-04-19 07:12:00,28.0,25.0,-100.00,NW,320,14.0,19.0,90,0.00,,,0.09,,2013-04-19 12:12:00,
2013-04-19 07:22:00,28.0,25.0,-100.00,NW,325,17.0,21.0,91,0.00,,,0.09,,2013-04-19 12:22:00,
2013-04-19 07:32:00,27.0,25.0,-100.00,NW,320,16.0,22.0,91,0.00,,,0.09,,2013-04-19 12:32:00,
2013-04-19 07:42:00,27.0,25.0,-100.00,NW,320,18.0,24.0,91,0.00,,,0.09,,2013-04-19 12:42:00,
2013-04-19 07:52:00,27.0,25.0,-100.00,NW,320,18.0,23.0,91,0.00,,,0.09,,2013-04-19 12:52:00,
2013-04-19 08:01:00,26.0,25.0,-100.00,NW,325,19.0,22.0,91,0.00,,,0.09,,2013-04-19 13:01:00,
2013-04-19 08:11:00,26.0,25.0,-100.00,NW,320,18.0,22.0,90,0.00,,,0.09,,2013-04-19 13:11:00,
2013-04-19 08:21:00,27.0,25.0,-100.00,NW,320,20.0,24.0,89,0.00,,,0.09,,2013-04-19 13:21:00,
2013-04-19 08:32:00,27.0,25.0,-100.00,NNW,330,20.0,24.0,88,0.00,,,0.09,,2013-04-19 13:32:00,
2013-04-19 08:42:00,27.0,25.0,-100.00,NW,325,19.0,26.0,87,0.00,,,0.09,,2013-04-19 13:42:00,
2013-04-19 08:52:00,28.0,25.0,-100.00,NW,325,21.0,27.0,87,0.00,,,0.09,,2013-04-19 13:52:00,
2013-04-19 09:01:00,28.0,25.0,-100.00,NW,325,19.0,27.0,85,0.00,,,0.09,,2013-04-19 14:01:00,
2013-04-19 09:11:00,28.0,25.0,-100.00,NW,325,20.0,27.0,85,0.00,,,0.09,,2013-04-19 14:11:00,
2013-04-19 09:21:00,29.0,25.0,-100.00,NNW,330,19.0,24.0,84,0.00,,,0.09,,2013-04-19 14:21:00,
2013-04-19 09:32:00,29.0,25.0,-100.00,NNW,330,17.0,22.0,83,0.00,,,0.09,,2013-04-19 14:32:00,
2013-04-19 09:42:00,29.0,25.0,-100.00,NNW,335,18.0,22.0,82,0.00,,,0.09,,2013-04-19 14:42:00,
2013-04-19 09:52:00,30.0,25.0,-100.00,NW,325,19.0,24.0,81,0.00,,,0.09,,2013-04-19 14:52:00,
2013-04-19 10:01:00,30.0,25.0,-100.00,NNW,340,20.0,26.0,80,0.00,,,0.09,,2013-04-19 15:01:00,
2013-04-19 10:12:00,30.0,25.0,-100.00,NNW,340,19.0,26.0,79,0.00,,,0.09,,2013-04-19 15:12:00,
2013-04-19 10:21:00,31.0,25.0,-100.00,NNW,340,19.0,22.0,79,0.00,,,0.09,,2013-04-19 15:21:00,
2013-04-19 10:33:00,31.0,25.0,-100.00,NNW,340,19.0,24.0,78,0.00,,,0.09,,2013-04-19 15:33:00,
2013-04-19 10:43:00,31.0,25.0,-100.00,NNW,340,21.0,27.0,77,0.00,,,0.09,,2013-04-19 15:43:00,
2013-04-19 10:52:00,31.0,25.0,-100.00,NNW,340,21.0,26.0,76,0.00,,,0.09,,2013-04-19 15:52:00,
2013-04-19 11:03:00,31.0,25.0,-100.00,NNW,335,19.0,25.0,75,0.00,,,0.09,,2013-04-19 16:03:00,
2013-04-19 11:12:00,32.0,25.0,-100.00,NNW,340,19.0,26.0,75,0.00,,,0.09,,2013-04-19 16:12:00,
2013-04-19 11:23:00,31.0,23.0,-100.00,NNW,340,22.0,27.0,74,0.00,,,0.09,,2013-04-19 16:23:00,
2013-04-19 11:32:00,31.0,23.0,-100.00,NNW,340,23.0,29.0,72,0.00,,,0.09,,2013-04-19 16:32:00,
2013-04-19 11:42:00,31.0,23.0,-100.00,NNW,335,20.0,26.0,72,0.00,,,0.09,,2013-04-19 16:42:00,
2013-04-19 11:52:00,32.0,23.0,-100.00,NNW,335,19.0,26.0,72,0.00,,,0.09,,2013-04-19 16:52:00,
2013-04-19 12:02:00,32.0,25.0,-100.00,NNW,340,19.0,27.0,72,0.00,,,0.08,,2013-04-19 17:02:00,
2013-04-19 12:12:00,32.0,25.0,-100.00,NNW,335,20.0,26.0,71,0.00,,,0.08,,2013-04-19 17:12:00,
2013-04-19 12:21:00,32.0,25.0,-100.00,NW,325,21.0,26.0,71,0.00,,,0.08,,2013-04-19 17:21:00,
2013-04-19 12:33:00,33.0,25.0,-100.00,NNW,335,21.0,27.0,70,0.00,,,0.08,,2013-04-19 17:33:00,
2013-04-19 12:42:00,33.0,23.0,-100.00,NNW,340,20.0,29.0,68,0.00,,,0.08,,2013-04-19 17:42:00,
2013-04-19 12:52:00,33.0,25.0,-100.00,NNW,340,17.0,24.0,68,0.00,,,0.08,,2013-04-19 17:52:00,
2013-04-19 13:02:00,33.0,23.0,-100.00,NW,325,22.0,28.0,67,0.00,,,0.08,,2013-04-19 18:02:00,
2013-04-19 13:13:00,33.0,23.0,-100.00,NW,325,23.0,28.0,67,0.00,,,0.08,,2013-04-19 18:13:00,
2013-04-19 13:22:00,34.0,23.0,-100.00,NW,325,19.0,24.0,65,0.00,,,0.08,,2013-04-19 18:22:00,
2013-04-19 13:33:00,33.0,25.0,-100.00,NW,325,21.0,25.0,68,0.00,,,0.08,,2013-04-19 18:33:00,
2013-04-19 13:42:00,34.0,23.0,-100.00,NNW,330,17.0,26.0,65,0.00,,,0.08,,2013-04-19 18:42:00,
2013-04-19 13:52:00,35.0,23.0,-100.00,NNW,335,15.0,27.0,63,0.00,,,0.08,,2013-04-19 18:52:00,
2013-04-19 14:01:00,34.0,23.0,-100.00,NNW,340,21.0,26.0,63,0.00,,,0.08,,2013-04-19 19:01:00,
2013-04-19 14:11:00,34.0,25.0,-100.00,NW,320,19.0,25.0,66,0.00,,,0.08,,2013-04-19 19:11:00,
2013-04-19 14:21:00,34.0,25.0,-100.00,NW,320,17.0,26.0,66,0.00,,,0.07,,2013-04-19 19:21:00,
2013-04-19 14:32:00,34.0,25.0,-100.00,NW,320,21.0,26.0,68,0.00,,,0.07,,2013-04-19 19:32:00,
2013-04-19 14:41:00,34.0,25.0,-100.00,NW,310,18.0,26.0,68,0.00,,,0.07,,2013-04-19 19:41:00,
2013-04-19 14:52:00,34.0,25.0,-100.00,NW,315,22.0,28.0,67,0.00,,,0.07,,2013-04-19 19:52:00,
2013-04-19 15:02:00,34.0,25.0,-100.00,NW,315,19.0,27.0,68,0.00,,,0.07,,2013-04-19 20:02:00,
2013-04-19 15:11:00,33.0,23.0,-100.00,NW,320,22.0,27.0,68,0.00,,,0.07,,2013-04-19 20:11:00,
2013-04-19 15:22:00,34.0,25.0,-100.00,NW,320,17.0,24.0,67,0.00,,,0.07,,2013-04-19 20:22:00,
2013-04-19 15:32:00,34.0,25.0,-100.00,NW,320,19.0,27.0,66,0.00,,,0.07,,2013-04-19 20:32:00,
2013-04-19 15:41:00,34.0,25.0,-100.00,NW,325,21.0,24.0,67,0.00,,,0.07,,2013-04-19 20:41:00,
2013-04-19 15:51:00,34.0,23.0,-100.00,NW,315,21.0,26.0,65,0.00,,,0.07,,2013-04-19 20:51:00,
2013-04-19 16:01:00,34.0,23.0,-100.00,NW,320,21.0,26.0,65,0.00,,,0.07,,2013-04-19 21:01:00,
2013-04-19 16:11:00,34.0,23.0,-100.00,NW,315,19.0,26.0,64,0.00,,,0.07,,2013-04-19 21:11:00,
2013-04-19 16:21:00,34.0,23.0,-100.00,NW,310,21.0,26.0,64,0.00,,,0.07,,2013-04-19 21:21:00,
2013-04-19 16:32:00,34.0,23.0,-100.00,NW,320,21.0,26.0,63,0.00,,,0.07,,2013-04-19 21:32:00,
2013-04-19 16:42:00,34.0,23.0,-100.00,NW,320,18.0,24.0,64,0.00,,,0.07,,2013-04-19 21:42:00,
2013-04-19 16:52:00,34.0,23.0,-100.00,NW,315,20.0,26.0,64,0.00,,,0.06,,2013-04-19 21:52:00,
2013-04-19 17:02:00,34.0,23.0,-100.00,NW,305,21.0,27.0,62,0.00,,,0.06,,2013-04-19 22:02:00,
2013-04-19 17:12:00,34.0,23.0,-100.00,NW,320,20.0,27.0,63,0.00,,,0.06,,2013-04-19 22:12:00,
2013-04-19 17:22:00,34.0,23.0,-100.00,NW,320,19.0,26.0,62,0.00,,,0.06,,2013-04-19 22:22:00,
2013-04-19 17:33:00,34.0,21.0,-100.00,NW,320,21.0,30.0,61,0.00,,,0.06,,2013-04-19 22:33:00,
2013-04-19 17:42:00,34.0,21.0,-100.00,NW,325,20.0,26.0,61,0.00,,,0.06,,2013-04-19 22:42:00,
2013-04-19 17:52:00,34.0,21.0,-100.00,NW,320,23.0,29.0,60,0.00,,,0.06,,2013-04-19 22:52:00,
2013-04-19 18:02:00,34.0,21.0,-100.00,NW,320,22.0,27.0,60,0.00,,,0.06,,2013-04-19 23:02:00,
2013-04-19 18:11:00,33.0,21.0,-100.00,NW,325,21.0,29.0,58,0.00,,,0.06,,2013-04-19 23:11:00,
2013-04-19 18:22:00,33.0,19.0,-100.00,NW,325,23.0,29.0,58,0.00,,,0.05,,2013-04-19 23:22:00,
2013-04-19 18:32:00,33.0,19.0,-100.00,NW,320,22.0,27.0,57,0.00,,,0.05,,2013-04-19 23:32:00,
2013-04-19 18:42:00,33.0,19.0,-100.00,NW,320,22.0,28.0,58,0.00,,,0.05,,2013-04-19 23:42:00,
2013-04-19 18:52:00,33.0,19.0,-100.00,NW,320,18.0,25.0,59,0.00,,,0.05,,2013-04-19 23:52:00,
2013-04-19 19:02:00,33.0,19.0,-100.00,NW,320,18.0,26.0,59,0.00,,,0.05,,2013-04-20 00:02:00,
2013-04-19 19:12:00,33.0,19.0,-100.00,NW,320,22.0,26.0,59,0.00,,,0.05,,2013-04-20 00:12:00,
2013-04-19 19:21:00,32.0,19.0,-100.00,NW,320,20.0,25.0,60,0.00,,,0.05,,2013-04-20 00:21:00,
2013-04-19 19:32:00,32.0,19.0,-100.00,NW,315,21.0,25.0,59,0.00,,,0.05,,2013-04-20 00:32:00,
2013-04-19 19:41:00,31.0,19.0,-100.00,NW,320,20.0,24.0,58,0.00,,,0.05,,2013-04-20 00:41:00,
2013-04-19 19:51:00,31.0,19.0,-100.00,NW,320,16.0,25.0,58,0.00,,,0.04,,2013-04-20 00:51:00,
2013-04-19 20:01:00,31.0,18.0,-100.00,NW,320,16.0,22.0,59,0.00,,,0.04,,2013-04-20 01:01:00,
2013-04-19 20:11:00,31.0,18.0,-100.00,NW,320,16.0,21.0,59,0.00,,,0.04,,2013-04-20 01:11:00,
2013-04-19 20:21:00,31.0,18.0,-100.00,NW,320,15.0,20.0,59,0.00,,,0.04,,2013-04-20 01:21:00,
2013-04-19 20:32:00,30.0,18.0,-100.00,NW,320,16.0,18.0,60,0.00,,,0.04,,2013-04-20 01:32:00,
2013-04-19 20:42:00,30.0,18.0,-100.00,NW,315,15.0,21.0,61,0.00,,,0.04,,2013-04-20 01:42:00,
2013-04-19 20:52:00,30.0,18.0,-100.00,NW,310,12.0,16.0,62,0.00,,,0.04,,2013-04-20 01:52:00,
2013-04-19 21:01:00,30.0,19.0,-100.00,NW,315,12.0,19.0,63,0.00,,,0.04,,2013-04-20 02:01:00,
2013-04-19 21:11:00,29.0,19.0,-100.00,NW,305,9.0,19.0,64,0.00,,,0.04,,2013-04-20 02:11:00,
2013-04-19 21:21:00,29.0,19.0,-100.00,NW,305,11.0,16.0,67,0.00,,,0.03,,2013-04-20 02:21:00,
2013-04-19 21:32:00,28.0,19.0,-100.00,WNW,300,11.0,14.0,69,0.00,,,0.03,,2013-04-20 02:32:00,
2013-04-19 21:42:00,28.0,19.0,-100.00,WNW,300,11.0,15.0,71,0.00,,,0.03,,2013-04-20 02:42:00,
2013-04-19 21:52:00,27.0,19.0,-100.00,NW,305,11.0,14.0,73,0.00,,,0.03,,2013-04-20 02:52:00,
2013-04-19 22:01:00,27.0,19.0,-100.00,NW,305,12.0,16.0,73,0.00,,,0.03,,2013-04-20 03:01:00,
2013-04-19 22:11:00,27.0,19.0,-100.00,NW,305,12.0,16.0,74,0.00,,,0.03,,2013-04-20 03:11:00,
2013-04-19 22:21:00,27.0,19.0,-100.00,NW,305,12.0,15.0,75,0.00,,,0.02,,2013-04-20 03:21:00,
2013-04-19 22:33:00,27.0,21.0,-100.00,NW,310,12.0,16.0,76,0.00,,,0.02,,2013-04-20 03:33:00,
2013-04-19 22:43:00,27.0,21.0,-100.00,NW,315,11.0,16.0,76,0.00,,,0.02,,2013-04-20 03:43:00,
2013-04-19 22:52:00,27.0,21.0,-100.00,NW,320,13.0,16.0,76,0.00,,,0.02,,2013-04-20 03:52:00,
2013-04-19 23:03:00,26.0,19.0,-100.00,NW,320,13.0,17.0,77,0.00,,,0.01,,2013-04-20 04:03:00,
2013-04-19 23:12:00,26.0,19.0,-100.00,NW,320,12.0,16.0,78,0.00,,,0.01,,2013-04-20 04:12:00,
2013-04-19 23:23:00,26.0,21.0,-100.00,NW,320,13.0,16.0,80,0.00,,,0.01,,2013-04-20 04:23:00,
2013-04-19 23:32:00,25.0,19.0,-100.00,NW,320,13.0,16.0,81,0.00,,,0.01,,2013-04-20 04:32:00,
2013-04-19 23:42:00,25.0,19.0,-100.00,NW,320,12.0,15.0,82,0.00,,,0.01,,2013-04-20 04:42:00,
2013-04-19 23:52:00,25.0,19.0,-100.00,NW,320,12.0,15.0,83,0.00,,,0.01,,2013-04-20 04:52:00,